Time,TemperatureF,DewpointF,PressureIn,WindDirection,WindDirectionDegrees,WindSpeedMPH,WindSpeedGustMPH,Humidity,HourlyPrecipIn,Conditions,Clouds,dailyrainin,SoftwareType,DateUTC
2013-03-25 00:04:00,57.4,15.5,29.91,NNW,338,0.0,0.0,19,0.00,,---,0.00,VWS V14.01,2013-03-25 07:04:00,
2013-03-25 00:09:00,57.4,15.5,29.91,NNW,338,0.0,0.0,19,0.00,,---,0.00,VWS V14.01,2013-03-25 07:09:00,
2013-03-25 00:14:00,57.4,15.5,29.91,NNW,338,0.0,0.0,19,0.00,,---,0.00,VWS V14.01,2013-03-25 07:14:00,
2013-03-25 00:19:00,57.4,15.5,29.91,NNW,338,0.0,0.0,19,0.00,,---,0.00,VWS V14.01,2013-03-25 07:19:00,
2013-03-25 00:24:00,57.4,15.5,29.91,NNW,338,0.0,0.0,19,0.00,,---,0.00,VWS V14.01,2013-03-25 07:24:00,
2013-03-25 00:29:00,57.2,15.3,29.91,NNW,338,0.0,0.0,19,0.00,,---,0.00,VWS V14.01,2013-03-25 07:29:00,
2013-03-25 00:34:00,57.0,16.4,29.91,North,0,0.0,0.0,20,0.00,,---,0.00,VWS V14.01,2013-03-25 07:34:00,
2013-03-25 00:39:00,56.8,16.2,29.91,North,0,0.0,0.0,20,0.00,,---,0.00,VWS V14.01,2013-03-25 07:39:00,
2013-03-25 00:45:00,56.7,16.1,29.91,North,0,0.0,0.0,20,0.00,,---,0.00,VWS V14.01,2013-03-25 07:45:00,
2013-03-25 00:50:00,56.8,16.2,29.91,NW,315,0.0,0.0,20,0.00,,---,0.00,VWS V14.01,2013-03-25 07:50:00,
2013-03-25 00:55:00,56.7,16.1,29.91,NNW,338,0.0,0.0,20,0.00,,---,0.00,VWS V14.01,2013-03-25 07:55:00,
2013-03-25 01:00:00,56.7,16.1,29.91,NNW,338,0.0,0.0,20,0.00,,---,0.00,VWS V14.01,2013-03-25 08:00:00,
2013-03-25 01:05:00,56.7,16.1,29.91,NNW,338,0.0,0.0,20,0.00,,---,0.00,VWS V14.01,2013-03-25 08:05:00,
2013-03-25 01:10:00,56.5,18.1,29.91,North,0,0.0,0.0,22,0.00,,---,0.00,VWS V14.01,2013-03-25 08:10:00,
2013-03-25 01:15:00,56.7,18.3,29.91,NNW,338,0.0,0.0,22,0.00,,---,0.00,VWS V14.01,2013-03-25 08:15:00,
2013-03-25 01:20:00,56.7,18.3,29.91,NNW,338,0.0,0.0,22,0.00,,---,0.00,VWS V14.01,2013-03-25 08:20:00,
2013-03-25 01:25:00,56.7,18.3,29.91,NNE,22,0.0,0.0,22,0.00,,---,0.00,VWS V14.01,2013-03-25 08:25:00,
2013-03-25 01:30:00,56.7,18.3,29.91,NNW,338,0.0,0.0,22,0.00,,---,0.00,VWS V14.01,2013-03-25 08:30:00,
2013-03-25 01:35:00,56.7,18.3,29.91,NNW,338,0.0,0.0,22,0.00,,---,0.00,VWS V14.01,2013-03-25 08:35:00,
2013-03-25 01:40:00,56.7,18.3,29.91,NNW,338,0.0,0.0,22,0.00,,---,0.00,VWS V14.01,2013-03-25 08:40:00,
2013-03-25 01:45:00,56.5,18.1,29.91,NNW,338,0.0,0.0,22,0.00,,---,0.00,VWS V14.01,2013-03-25 08:45:00,
2013-03-25 01:50:00,56.3,18.0,29.91,North,0,0.0,0.0,22,0.00,,---,0.00,VWS V14.01,2013-03-25 08:50:00,
2013-03-25 01:55:00,56.3,18.0,29.91,NW,315,0.0,0.0,22,0.00,,---,0.00,VWS V14.01,2013-03-25 08:55:00,
2013-03-25 02:00:00,56.1,17.8,29.91,NNW,338,0.0,0.0,22,0.00,,---,0.00,VWS V14.01,2013-03-25 09:00:00,
2013-03-25 02:05:00,56.1,17.8,29.91,NNW,338,0.0,0.0,22,0.00,,---,0.00,VWS V14.01,2013-03-25 09:05:00,
2013-03-25 02:10:00,55.9,17.7,29.91,NNW,338,0.0,0.0,22,0.00,,---,0.00,VWS V14.01,2013-03-25 09:10:00,
2013-03-25 02:15:00,55.8,17.5,29.91,North,0,0.0,0.0,22,0.00,,---,0.00,VWS V14.01,2013-03-25 09:15:00,
2013-03-25 02:20:00,55.6,17.4,29.91,NW,315,0.0,0.0,22,0.00,,---,0.00,VWS V14.01,2013-03-25 09:20:00,
2013-03-25 02:25:00,55.6,17.4,29.91,NNW,338,0.0,0.0,22,0.00,,---,0.00,VWS V14.01,2013-03-25 09:25:00,
2013-03-25 02:30:00,55.6,17.4,29.91,NNW,338,0.0,0.0,22,0.00,,---,0.00,VWS V14.01,2013-03-25 09:30:00,
2013-03-25 02:35:00,55.4,17.2,29.91,NW,315,0.0,0.0,22,0.00,,---,0.00,VWS V14.01,2013-03-25 09:35:00,
2013-03-25 02:41:00,55.2,18.1,29.91,NNW,338,0.0,0.0,23,0.00,,---,0.00,VWS V14.01,2013-03-25 09:41:00,
2013-03-25 02:46:00,54.9,17.8,29.91,South,180,0.0,0.0,23,0.00,,---,0.00,VWS V14.01,2013-03-25 09:46:00,
2013-03-25 02:51:00,53.8,16.9,29.91,South,180,0.0,0.0,23,0.00,,---,0.00,VWS V14.01,2013-03-25 09:51:00,
2013-03-25 02:56:00,52.9,16.1,29.91,SSW,202,0.0,0.0,23,0.00,,---,0.00,VWS V14.01,2013-03-25 09:56:00,
2013-03-25 03:01:00,52.3,15.7,29.91,WNW,292,0.0,0.0,23,0.00,,---,0.00,VWS V14.01,2013-03-25 10:01:00,
2013-03-25 03:07:00,52.2,15.5,29.91,NNW,338,0.0,0.0,23,0.00,,---,0.00,VWS V14.01,2013-03-25 10:07:00,
2013-03-25 03:12:00,52.2,15.5,29.91,NW,315,0.0,0.0,23,0.00,,---,0.00,VWS V14.01,2013-03-25 10:12:00,
2013-03-25 03:17:00,52.5,15.8,29.91,NNW,338,0.0,0.0,23,0.00,,---,0.00,VWS V14.01,2013-03-25 10:17:00,
2013-03-25 03:22:00,53.1,16.3,29.91,NW,315,0.0,0.0,23,0.00,,---,0.00,VWS V14.01,2013-03-25 10:22:00,
2013-03-25 03:27:00,53.2,16.4,29.91,ESE,112,0.0,0.0,23,0.00,,---,0.00,VWS V14.01,2013-03-25 10:27:00,
2013-03-25 03:32:00,52.2,15.5,29.91,SSE,158,0.0,0.0,23,0.00,,---,0.00,VWS V14.01,2013-03-25 10:32:00,
2013-03-25 03:37:00,51.3,15.7,29.91,SSE,158,0.0,0.0,24,0.00,,---,0.00,VWS V14.01,2013-03-25 10:37:00,
2013-03-25 03:42:00,50.2,14.8,29.91,SE,135,0.0,0.0,24,0.00,,---,0.00,VWS V14.01,2013-03-25 10:42:00,
2013-03-25 03:47:00,49.5,14.2,29.91,SE,135,0.0,0.0,24,0.00,,---,0.00,VWS V14.01,2013-03-25 10:47:00,
2013-03-25 03:53:00,48.9,13.7,29.91,SE,135,0.0,0.0,24,0.00,,---,0.00,VWS V14.01,2013-03-25 10:53:00,
2013-03-25 03:58:00,48.7,13.6,29.91,SE,135,0.0,0.0,24,0.00,,---,0.00,VWS V14.01,2013-03-25 10:58:00,
2013-03-25 04:03:00,48.7,13.6,29.91,NNW,338,0.0,0.0,24,0.00,,---,0.00,VWS V14.01,2013-03-25 11:03:00,
2013-03-25 04:08:00,48.7,13.6,29.91,NNW,338,0.0,0.0,24,0.00,,---,0.00,VWS V14.01,2013-03-25 11:08:00,
2013-03-25 04:13:00,48.7,13.6,29.91,NW,315,0.0,0.0,24,0.00,,---,0.00,VWS V14.01,2013-03-25 11:13:00,
2013-03-25 04:18:00,49.1,15.7,29.91,NNW,338,0.0,0.0,26,0.00,,---,0.00,VWS V14.01,2013-03-25 11:18:00,
2013-03-25 04:23:00,48.7,15.4,29.91,NNW,338,0.0,0.0,26,0.00,,---,0.00,VWS V14.01,2013-03-25 11:23:00,
2013-03-25 04:28:00,48.7,15.4,29.91,NNW,338,0.0,0.0,26,0.00,,---,0.00,VWS V14.01,2013-03-25 11:28:00,
2013-03-25 04:33:00,48.7,15.4,29.91,NNW,338,0.0,0.0,26,0.00,,---,0.00,VWS V14.01,2013-03-25 11:33:00,
2013-03-25 04:38:00,48.6,15.2,29.91,NNW,338,0.0,0.0,26,0.00,,---,0.00,VWS V14.01,2013-03-25 11:38:00,
2013-03-25 04:43:00,48.6,15.2,29.91,NNW,338,0.0,0.0,26,0.00,,---,0.00,VWS V14.01,2013-03-25 11:43:00,
2013-03-25 04:48:00,48.4,15.1,29.91,South,180,0.0,0.0,26,0.00,,---,0.00,VWS V14.01,2013-03-25 11:48:00,
2013-03-25 04:53:00,48.2,14.9,29.91,West,270,0.0,0.0,26,0.00,,---,0.00,VWS V14.01,2013-03-25 11:53:00,
2013-03-25 04:58:00,48.2,14.9,29.91,NNW,338,0.0,0.0,26,0.00,,---,0.00,VWS V14.01,2013-03-25 11:58:00,
2013-03-25 05:03:00,48.0,15.6,29.91,WNW,292,0.0,0.0,27,0.00,,---,0.00,VWS V14.01,2013-03-25 12:03:00,
2013-03-25 05:08:00,47.8,15.5,29.91,North,0,0.0,0.0,27,0.00,,---,0.00,VWS V14.01,2013-03-25 12:08:00,
2013-03-25 05:13:00,47.8,15.5,29.91,NNW,338,0.0,0.0,27,0.00,,---,0.00,VWS V14.01,2013-03-25 12:13:00,
2013-03-25 05:18:00,47.7,15.3,29.91,NNW,338,0.0,0.0,27,0.00,,---,0.00,VWS V14.01,2013-03-25 12:18:00,
2013-03-25 05:24:00,47.3,15.0,29.91,NW,315,0.0,0.0,27,0.00,,---,0.00,VWS V14.01,2013-03-25 12:24:00,
2013-03-25 05:29:00,47.1,14.9,29.91,NNW,338,0.0,0.0,27,0.00,,---,0.00,VWS V14.01,2013-03-25 12:29:00,
2013-03-25 05:34:00,47.3,15.0,29.91,NNW,338,0.0,0.0,27,0.00,,---,0.00,VWS V14.01,2013-03-25 12:34:00,
2013-03-25 05:39:00,47.5,15.2,29.91,NNW,338,0.0,0.0,27,0.00,,---,0.00,VWS V14.01,2013-03-25 12:39:00,
2013-03-25 05:44:00,47.5,15.2,29.91,NW,315,0.0,0.0,27,0.00,,---,0.00,VWS V14.01,2013-03-25 12:44:00,
2013-03-25 05:49:00,47.5,15.2,29.94,NNW,338,0.0,0.0,27,0.00,,---,0.00,VWS V14.01,2013-03-25 12:49:00,
2013-03-25 05:54:00,47.7,15.3,29.94,NNW,338,0.0,0.0,27,0.00,,---,0.00,VWS V14.01,2013-03-25 12:54:00,
2013-03-25 05:59:00,47.8,15.5,29.94,NNW,338,0.0,0.0,27,0.00,,---,0.00,VWS V14.01,2013-03-25 12:59:00,
2013-03-25 06:04:00,48.0,15.6,29.94,NNW,338,0.0,0.0,27,0.00,,---,0.00,VWS V14.01,2013-03-25 13:04:00,
2013-03-25 06:09:00,48.0,15.6,29.94,NNW,338,0.0,0.0,27,0.00,,---,0.00,VWS V14.01,2013-03-25 13:09:00,
2013-03-25 06:14:00,48.2,15.8,29.94,North,0,0.0,0.0,27,0.00,,---,0.00,VWS V14.01,2013-03-25 13:14:00,
2013-03-25 06:19:00,48.2,15.8,29.94,NNW,338,0.0,0.0,27,0.00,,---,0.00,VWS V14.01,2013-03-25 13:19:00,
2013-03-25 06:24:00,48.2,15.8,29.94,NNE,22,0.0,0.0,27,0.00,,---,0.00,VWS V14.01,2013-03-25 13:24:00,
2013-03-25 06:30:00,48.0,15.6,29.94,NNW,338,0.0,0.0,27,0.00,,---,0.00,VWS V14.01,2013-03-25 13:30:00,
2013-03-25 06:35:00,48.2,15.8,29.94,NNW,338,0.0,0.0,27,0.00,,---,0.00,VWS V14.01,2013-03-25 13:35:00,
2013-03-25 06:40:00,48.6,16.1,29.94,NNW,338,0.0,0.0,27,0.00,,---,0.00,VWS V14.01,2013-03-25 13:40:00,
2013-03-25 06:45:00,48.6,16.1,29.94,NNW,338,0.0,0.0,27,0.00,,---,0.00,VWS V14.01,2013-03-25 13:45:00,
2013-03-25 06:50:00,48.6,16.1,29.94,North,0,0.0,0.0,27,0.00,,---,0.00,VWS V14.01,2013-03-25 13:50:00,
2013-03-25 06:55:00,48.7,16.3,29.94,NNE,22,0.0,0.0,27,0.00,,---,0.00,VWS V14.01,2013-03-25 13:55:00,
2013-03-25 07:00:00,48.9,16.4,29.94,SSE,158,0.0,0.0,27,0.00,,---,0.00,VWS V14.01,2013-03-25 14:00:00,
2013-03-25 07:05:00,49.3,16.7,29.97,ESE,112,0.0,0.0,27,0.00,,---,0.00,VWS V14.01,2013-03-25 14:05:00,
2013-03-25 07:10:00,49.8,17.2,29.97,ESE,112,0.0,0.0,27,0.00,,---,0.00,VWS V14.01,2013-03-25 14:10:00,
2013-03-25 07:15:00,50.4,17.7,29.97,ESE,112,0.0,0.0,27,0.00,,---,0.00,VWS V14.01,2013-03-25 14:15:00,
2013-03-25 07:20:00,50.9,18.1,29.97,ESE,112,0.0,0.0,27,0.00,,---,0.00,VWS V14.01,2013-03-25 14:20:00,
2013-03-25 07:25:00,51.6,18.8,29.97,ENE,68,0.0,0.0,27,0.00,,---,0.00,VWS V14.01,2013-03-25 14:25:00,
2013-03-25 07:30:00,52.0,19.1,29.97,ENE,68,0.0,0.0,27,0.00,,---,0.00,VWS V14.01,2013-03-25 14:30:00,
2013-03-25 07:35:00,52.5,19.5,29.97,NE,45,0.0,0.0,27,0.00,,---,0.00,VWS V14.01,2013-03-25 14:35:00,
2013-03-25 07:40:00,53.4,20.3,29.97,NNW,338,0.0,0.0,27,0.00,,---,0.00,VWS V14.01,2013-03-25 14:40:00,
2013-03-25 07:45:00,54.3,20.2,29.97,NNW,338,0.0,0.0,26,0.00,,---,0.00,VWS V14.01,2013-03-25 14:45:00,
2013-03-25 07:50:00,55.6,21.3,29.97,ENE,68,0.0,0.0,26,0.00,,---,0.00,VWS V14.01,2013-03-25 14:50:00,
2013-03-25 07:55:00,57.6,22.0,29.97,NNE,22,0.0,0.0,25,0.00,,---,0.00,VWS V14.01,2013-03-25 14:55:00,
2013-03-25 08:01:00,61.0,24.9,29.97,ENE,68,0.0,0.0,25,0.00,,---,0.00,VWS V14.01,2013-03-25 15:01:00,
2013-03-25 08:06:00,60.6,24.6,29.97,ESE,112,0.0,0.0,25,0.00,,---,0.00,VWS V14.01,2013-03-25 15:06:00,
2013-03-25 08:11:00,63.5,26.1,29.97,SE,135,0.0,0.0,24,0.00,,---,0.00,VWS V14.01,2013-03-25 15:11:00,
2013-03-25 08:16:00,66.2,28.4,29.97,SSE,158,0.0,0.0,24,0.00,,---,0.00,VWS V14.01,2013-03-25 15:16:00,
2013-03-25 08:21:00,68.7,29.5,29.97,SE,135,0.0,0.0,23,0.00,,---,0.00,VWS V14.01,2013-03-25 15:21:00,
2013-03-25 08:26:00,69.3,29.9,29.97,South,180,0.0,0.0,23,0.00,,---,0.00,VWS V14.01,2013-03-25 15:26:00,
2013-03-25 08:31:00,69.1,29.8,29.97,SE,135,0.0,0.0,23,0.00,,---,0.00,VWS V14.01,2013-03-25 15:31:00,
2013-03-25 08:36:00,68.5,29.3,29.97,South,180,0.0,0.0,23,0.00,,---,0.00,VWS V14.01,2013-03-25 15:36:00,
2013-03-25 08:41:00,67.3,28.2,29.97,South,180,0.0,0.0,23,0.00,,---,0.00,VWS V14.01,2013-03-25 15:41:00,
2013-03-25 08:46:00,66.7,27.8,29.97,South,180,0.0,0.0,23,0.00,,---,0.00,VWS V14.01,2013-03-25 15:46:00,
2013-03-25 08:52:00,66.6,27.6,29.97,SSW,202,0.0,0.0,23,0.00,,---,0.00,VWS V14.01,2013-03-25 15:52:00,
2013-03-25 08:57:00,66.7,27.8,29.97,SSW,202,0.0,0.0,23,0.00,,---,0.00,VWS V14.01,2013-03-25 15:57:00,
2013-03-25 09:02:00,67.1,28.1,29.97,SE,135,0.0,0.0,23,0.00,,---,0.00,VWS V14.01,2013-03-25 16:02:00,
2013-03-25 09:07:00,67.5,28.4,29.97,South,180,0.0,0.0,23,0.00,,---,0.00,VWS V14.01,2013-03-25 16:07:00,
2013-03-25 09:12:00,67.5,28.4,29.97,SSW,202,0.0,0.0,23,0.00,,---,0.00,VWS V14.01,2013-03-25 16:12:00,
2013-03-25 09:17:00,67.6,28.5,29.97,SSW,202,0.0,0.0,23,0.00,,---,0.00,VWS V14.01,2013-03-25 16:17:00,
2013-03-25 09:22:00,68.4,28.1,29.97,South,180,0.0,0.0,22,0.00,,---,0.00,VWS V14.01,2013-03-25 16:22:00,
2013-03-25 09:28:00,68.7,28.4,29.97,SSW,202,0.0,0.0,22,0.00,,---,0.00,VWS V14.01,2013-03-25 16:28:00,
2013-03-25 09:33:00,69.3,28.8,29.97,SE,135,0.0,0.0,22,0.00,,---,0.00,VWS V14.01,2013-03-25 16:33:00,
2013-03-25 09:38:00,69.6,29.1,29.97,SE,135,0.0,0.0,22,0.00,,---,0.00,VWS V14.01,2013-03-25 16:38:00,
2013-03-25 09:43:00,70.3,29.7,29.97,South,180,0.0,0.0,22,0.00,,---,0.00,VWS V14.01,2013-03-25 16:43:00,
2013-03-25 09:48:00,70.7,30.0,29.97,SSE,158,0.0,0.0,22,0.00,,---,0.00,VWS V14.01,2013-03-25 16:48:00,
2013-03-25 09:53:00,71.1,30.3,29.97,SW,225,0.0,0.0,22,0.00,,---,0.00,VWS V14.01,2013-03-25 16:53:00,
2013-03-25 09:58:00,71.6,29.6,29.97,East,90,0.0,0.0,21,0.00,,---,0.00,VWS V14.01,2013-03-25 16:58:00,
2013-03-25 10:03:00,72.1,30.1,29.97,SW,225,0.0,0.0,21,0.00,,---,0.00,VWS V14.01,2013-03-25 17:03:00,
2013-03-25 10:08:00,72.3,30.2,29.97,South,180,0.0,0.0,21,0.00,,---,0.00,VWS V14.01,2013-03-25 17:08:00,
2013-03-25 10:13:00,72.7,30.5,29.97,ESE,112,0.0,0.0,21,0.00,,---,0.00,VWS V14.01,2013-03-25 17:13:00,
2013-03-25 10:18:00,73.2,31.0,29.97,SSE,158,0.0,0.0,21,0.00,,---,0.00,VWS V14.01,2013-03-25 17:18:00,
2013-03-25 10:23:00,73.9,31.6,29.97,SSW,202,0.0,0.0,21,0.00,,---,0.00,VWS V14.01,2013-03-25 17:23:00,
2013-03-25 10:28:00,74.1,31.7,29.97,SE,135,0.0,0.0,21,0.00,,---,0.00,VWS V14.01,2013-03-25 17:28:00,
2013-03-25 10:34:00,74.7,32.2,29.97,SE,135,0.0,0.0,21,0.00,,---,0.00,VWS V14.01,2013-03-25 17:34:00,
2013-03-25 10:39:00,74.7,32.2,29.97,SSW,202,0.0,0.0,21,0.00,,---,0.00,VWS V14.01,2013-03-25 17:39:00,
2013-03-25 10:44:00,74.8,32.3,29.97,East,90,0.0,0.0,21,0.00,,---,0.00,VWS V14.01,2013-03-25 17:44:00,
2013-03-25 10:49:00,74.8,28.5,29.97,South,180,0.0,0.0,18,0.00,,---,0.00,VWS V14.01,2013-03-25 17:49:00,
2013-03-25 10:54:00,75.0,28.7,29.97,NW,315,0.0,0.0,18,0.00,,---,0.00,VWS V14.01,2013-03-25 17:54:00,
2013-03-25 10:59:00,74.3,28.1,29.97,SW,225,0.0,0.0,18,0.00,,---,0.00,VWS V14.01,2013-03-25 17:59:00,
2013-03-25 11:04:00,73.8,27.6,29.97,WSW,248,0.0,0.0,18,0.00,,---,0.00,VWS V14.01,2013-03-25 18:04:00,
2013-03-25 11:09:00,74.3,28.1,29.97,South,180,0.0,0.0,18,0.00,,---,0.00,VWS V14.01,2013-03-25 18:09:00,
2013-03-25 11:14:00,74.8,28.5,29.97,SW,225,0.0,0.0,18,0.00,,---,0.00,VWS V14.01,2013-03-25 18:14:00,
2013-03-25 11:19:00,75.0,28.7,29.94,SW,225,0.0,0.0,18,0.00,,---,0.00,VWS V14.01,2013-03-25 18:19:00,
2013-03-25 11:24:00,75.0,28.7,29.94,West,270,0.0,0.0,18,0.00,,---,0.00,VWS V14.01,2013-03-25 18:24:00,
2013-03-25 11:29:00,75.6,29.1,29.94,South,180,0.0,0.0,18,0.00,,---,0.00,VWS V14.01,2013-03-25 18:29:00,
2013-03-25 11:34:00,76.1,29.6,29.94,West,270,0.0,0.0,18,0.00,,---,0.00,VWS V14.01,2013-03-25 18:34:00,
2013-03-25 11:39:00,76.3,29.7,29.94,SSW,202,0.0,0.0,18,0.00,,---,0.00,VWS V14.01,2013-03-25 18:39:00,
2013-03-25 11:44:00,76.6,30.0,29.94,SSW,202,0.0,0.0,18,0.00,,---,0.00,VWS V14.01,2013-03-25 18:44:00,
2013-03-25 11:49:00,77.0,30.3,29.94,NE,45,0.0,0.0,18,0.00,,---,0.00,VWS V14.01,2013-03-25 18:49:00,
2013-03-25 11:54:00,77.7,30.9,29.94,SW,225,0.0,0.0,18,0.00,,---,0.00,VWS V14.01,2013-03-25 18:54:00,
2013-03-25 11:59:00,77.5,30.7,29.94,SW,225,0.0,0.0,18,0.00,,---,0.00,VWS V14.01,2013-03-25 18:59:00,
2013-03-25 12:04:00,77.5,30.7,29.94,South,180,0.0,0.0,18,0.00,,---,0.00,VWS V14.01,2013-03-25 19:04:00,
2013-03-25 12:09:00,77.7,30.9,29.94,East,90,0.0,0.0,18,0.00,,---,0.00,VWS V14.01,2013-03-25 19:09:00,
2013-03-25 12:14:00,78.3,31.3,29.94,ESE,112,1.3,1.3,18,0.00,,---,0.00,VWS V14.01,2013-03-25 19:14:00,
2013-03-25 12:19:00,78.6,31.6,29.94,SSW,202,0.0,0.0,18,0.00,,---,0.00,VWS V14.01,2013-03-25 19:19:00,
2013-03-25 12:25:00,78.8,30.4,29.94,SE,135,0.0,0.0,17,0.00,,---,0.00,VWS V14.01,2013-03-25 19:25:00,
2013-03-25 12:30:00,79.2,30.6,29.94,SSE,158,0.0,0.0,17,0.00,,---,0.00,VWS V14.01,2013-03-25 19:30:00,
2013-03-25 12:35:00,79.7,31.1,29.91,ESE,112,0.0,1.1,17,0.00,,---,0.00,VWS V14.01,2013-03-25 19:35:00,
2013-03-25 12:40:00,80.4,31.7,29.91,ESE,112,0.0,0.0,17,0.00,,---,0.00,VWS V14.01,2013-03-25 19:40:00,
2013-03-25 12:45:00,80.6,31.8,29.91,SW,225,0.0,0.0,17,0.00,,---,0.00,VWS V14.01,2013-03-25 19:45:00,
2013-03-25 12:50:00,80.6,31.8,29.91,SW,225,0.0,0.0,17,0.00,,---,0.00,VWS V14.01,2013-03-25 19:50:00,
2013-03-25 12:55:00,80.1,31.4,29.91,East,90,0.0,0.0,17,0.00,,---,0.00,VWS V14.01,2013-03-25 19:55:00,
2013-03-25 13:00:00,80.4,31.7,29.91,ESE,112,1.3,3.1,17,0.00,,---,0.00,VWS V14.01,2013-03-25 20:00:00,
2013-03-25 13:05:00,80.6,31.8,29.91,SW,225,1.6,1.6,17,0.00,,---,0.00,VWS V14.01,2013-03-25 20:05:00,
2013-03-25 13:10:00,80.2,31.5,29.91,SW,225,0.0,0.0,17,0.00,,---,0.00,VWS V14.01,2013-03-25 20:10:00,
2013-03-25 13:15:00,79.9,31.2,29.91,SW,225,4.0,4.0,17,0.00,,---,0.00,VWS V14.01,2013-03-25 20:15:00,
2013-03-25 13:20:00,79.7,31.1,29.91,WSW,248,0.0,0.0,17,0.00,,---,0.00,VWS V14.01,2013-03-25 20:20:00,
2013-03-25 13:25:00,80.1,31.4,29.91,WSW,248,0.0,0.0,17,0.00,,---,0.00,VWS V14.01,2013-03-25 20:25:00,
2013-03-25 13:30:00,79.7,31.1,29.91,WNW,292,0.0,0.0,17,0.00,,---,0.00,VWS V14.01,2013-03-25 20:30:00,
2013-03-25 13:35:00,79.7,31.1,29.91,NNE,22,0.0,0.0,17,0.00,,---,0.00,VWS V14.01,2013-03-25 20:35:00,
2013-03-25 13:40:00,79.9,31.2,29.91,South,180,0.0,0.0,17,0.00,,---,0.00,VWS V14.01,2013-03-25 20:40:00,
2013-03-25 13:45:00,80.4,31.7,29.91,NNE,22,0.0,0.0,17,0.00,,---,0.00,VWS V14.01,2013-03-25 20:45:00,
2013-03-25 13:50:00,80.1,31.4,29.91,ESE,112,0.0,0.0,17,0.00,,---,0.00,VWS V14.01,2013-03-25 20:50:00,
2013-03-25 13:55:00,80.6,31.8,29.91,SE,135,0.0,0.0,17,0.00,,---,0.00,VWS V14.01,2013-03-25 20:55:00,
2013-03-25 14:00:00,80.8,32.0,29.91,SW,225,0.0,0.0,17,0.00,,---,0.00,VWS V14.01,2013-03-25 21:00:00,
2013-03-25 14:06:00,80.8,32.0,29.91,SSE,158,0.0,0.0,17,0.00,,---,0.00,VWS V14.01,2013-03-25 21:06:00,
2013-03-25 14:11:00,81.3,32.4,29.91,SSE,158,0.0,0.0,17,0.00,,---,0.00,VWS V14.01,2013-03-25 21:11:00,
2013-03-25 14:16:00,81.3,32.4,29.91,WSW,248,0.0,0.0,17,0.00,,---,0.00,VWS V14.01,2013-03-25 21:16:00,
2013-03-25 14:21:00,81.3,32.4,29.91,East,90,0.0,3.1,17,0.00,,---,0.00,VWS V14.01,2013-03-25 21:21:00,
2013-03-25 14:26:00,81.9,32.8,29.91,WSW,248,0.0,0.0,17,0.00,,---,0.00,VWS V14.01,2013-03-25 21:26:00,
2013-03-25 14:31:00,81.9,32.8,29.91,SSW,202,0.0,0.0,17,0.00,,---,0.00,VWS V14.01,2013-03-25 21:31:00,
2013-03-25 14:36:00,82.2,33.1,29.91,South,180,0.0,0.0,17,0.00,,---,0.00,VWS V14.01,2013-03-25 21:36:00,
2013-03-25 14:41:00,81.7,32.7,29.91,WSW,248,2.7,2.7,17,0.00,,---,0.00,VWS V14.01,2013-03-25 21:41:00,
2013-03-25 14:46:00,81.7,32.7,29.91,SW,225,0.9,0.9,17,0.00,,---,0.00,VWS V14.01,2013-03-25 21:46:00,
2013-03-25 14:51:00,81.9,32.8,29.91,WNW,292,0.0,0.0,17,0.00,,---,0.00,VWS V14.01,2013-03-25 21:51:00,
2013-03-25 14:56:00,81.9,32.8,29.91,WSW,248,0.0,0.0,17,0.00,,---,0.00,VWS V14.01,2013-03-25 21:56:00,
2013-03-25 15:01:00,82.2,33.1,29.91,South,180,0.0,0.0,17,0.00,,---,0.00,VWS V14.01,2013-03-25 22:01:00,
2013-03-25 15:06:00,82.4,31.8,29.91,SSW,202,0.0,0.0,16,0.00,,---,0.00,VWS V14.01,2013-03-25 22:06:00,
2013-03-25 15:11:00,81.9,32.8,29.91,SSW,202,0.0,0.9,17,0.00,,---,0.00,VWS V14.01,2013-03-25 22:11:00,
2013-03-25 15:17:00,81.7,32.7,29.91,South,180,0.0,0.0,17,0.00,,---,0.00,VWS V14.01,2013-03-25 22:17:00,
2013-03-25 15:22:00,81.9,32.8,29.91,NW,315,0.0,0.0,17,0.00,,---,0.00,VWS V14.01,2013-03-25 22:22:00,
2013-03-25 15:27:00,81.9,32.8,29.91,SW,225,0.0,0.0,17,0.00,,---,0.00,VWS V14.01,2013-03-25 22:27:00,
2013-03-25 15:32:00,81.7,32.7,29.91,SW,225,0.9,0.9,17,0.00,,---,0.00,VWS V14.01,2013-03-25 22:32:00,
2013-03-25 15:37:00,81.7,32.7,29.88,NNE,22,0.0,7.8,17,0.00,,---,0.00,VWS V14.01,2013-03-25 22:37:00,
2013-03-25 15:42:00,81.7,32.7,29.88,NNE,22,6.0,6.0,17,0.00,,---,0.00,VWS V14.01,2013-03-25 22:42:00,
2013-03-25 15:47:00,81.3,32.4,29.88,NNW,338,3.6,3.6,17,0.00,,---,0.00,VWS V14.01,2013-03-25 22:47:00,
2013-03-25 15:52:00,81.1,32.2,29.88,SW,225,0.9,0.9,17,0.00,,---,0.00,VWS V14.01,2013-03-25 22:52:00,
2013-03-25 15:58:00,80.4,31.7,29.88,SSW,202,1.1,1.1,17,0.00,,---,0.00,VWS V14.01,2013-03-25 22:58:00,
2013-03-25 16:03:00,81.0,32.1,29.88,NNE,22,0.0,0.0,17,0.00,,---,0.00,VWS V14.01,2013-03-25 23:03:00,
2013-03-25 16:08:00,81.0,32.1,29.88,NW,315,0.9,0.9,17,0.00,,---,0.00,VWS V14.01,2013-03-25 23:08:00,
2013-03-25 16:13:00,80.8,32.0,29.88,North,0,0.0,0.0,17,0.00,,---,0.00,VWS V14.01,2013-03-25 23:13:00,
2013-03-25 16:18:00,81.1,32.2,29.88,SW,225,2.5,3.6,17,0.00,,---,0.00,VWS V14.01,2013-03-25 23:18:00,
2013-03-25 16:23:00,81.3,32.4,29.88,SW,225,0.0,0.0,17,0.00,,---,0.00,VWS V14.01,2013-03-25 23:23:00,
2013-03-25 16:28:00,81.1,32.2,29.88,SSW,202,0.0,0.0,17,0.00,,---,0.00,VWS V14.01,2013-03-25 23:28:00,
2013-03-25 16:33:00,81.1,32.2,29.88,WSW,248,0.9,0.9,17,0.00,,---,0.00,VWS V14.01,2013-03-25 23:33:00,
2013-03-25 16:38:00,81.1,32.2,29.88,SSW,202,4.3,4.3,17,0.00,,---,0.00,VWS V14.01,2013-03-25 23:38:00,
2013-03-25 16:43:00,80.8,32.0,29.88,SE,135,0.0,0.0,17,0.00,,---,0.00,VWS V14.01,2013-03-25 23:43:00,
2013-03-25 16:48:00,80.8,32.0,29.88,South,180,0.0,0.0,17,0.00,,---,0.00,VWS V14.01,2013-03-25 23:48:00,
2013-03-25 16:53:00,81.0,32.1,29.88,SSE,158,0.0,0.0,17,0.00,,---,0.00,VWS V14.01,2013-03-25 23:53:00,
2013-03-25 16:58:00,80.8,32.0,29.88,SSW,202,0.0,1.1,17,0.00,,---,0.00,VWS V14.01,2013-03-25 23:58:00,
2013-03-25 17:03:00,80.8,32.0,29.88,SW,225,0.0,3.1,17,0.00,,---,0.00,VWS V14.01,2013-03-26 00:03:00,
2013-03-25 17:08:00,80.8,32.0,29.88,SW,225,2.7,2.7,17,0.00,,---,0.00,VWS V14.01,2013-03-26 00:08:00,
2013-03-25 17:13:00,81.0,32.1,29.88,SW,225,1.1,1.1,17,0.00,,---,0.00,VWS V14.01,2013-03-26 00:13:00,
2013-03-25 17:18:00,80.6,31.8,29.88,SW,225,0.0,1.6,17,0.00,,---,0.00,VWS V14.01,2013-03-26 00:18:00,
2013-03-25 17:23:00,80.8,32.0,29.88,SW,225,3.4,3.4,17,0.00,,---,0.00,VWS V14.01,2013-03-26 00:23:00,
2013-03-25 17:28:00,80.4,31.7,29.88,SW,225,0.0,0.0,17,0.00,,---,0.00,VWS V14.01,2013-03-26 00:28:00,
2013-03-25 17:33:00,79.9,31.2,29.85,SSW,202,0.0,0.0,17,0.00,,---,0.00,VWS V14.01,2013-03-26 00:33:00,
2013-03-25 17:38:00,79.2,30.6,29.85,WSW,248,3.1,3.1,17,0.00,,---,0.00,VWS V14.01,2013-03-26 00:38:00,
2013-03-25 17:44:00,78.4,27.0,29.85,SW,225,2.5,2.5,15,0.00,,---,0.00,VWS V14.01,2013-03-26 00:44:00,
2013-03-25 17:49:00,77.5,26.3,29.88,SSW,202,2.2,2.2,15,0.00,,---,0.00,VWS V14.01,2013-03-26 00:49:00,
2013-03-25 17:54:00,77.0,25.9,29.88,WSW,248,0.0,0.0,15,0.00,,---,0.00,VWS V14.01,2013-03-26 00:54:00,
2013-03-25 17:59:00,76.5,25.4,29.88,SW,225,3.1,3.1,15,0.00,,---,0.00,VWS V14.01,2013-03-26 00:59:00,
2013-03-25 18:04:00,75.9,25.0,29.88,SW,225,0.9,0.9,15,0.00,,---,0.00,VWS V14.01,2013-03-26 01:04:00,
2013-03-25 18:09:00,75.2,24.4,29.88,SW,225,0.0,0.0,15,0.00,,---,0.00,VWS V14.01,2013-03-26 01:09:00,
2013-03-25 18:14:00,74.7,25.5,29.88,West,270,0.0,3.1,16,0.00,,---,0.00,VWS V14.01,2013-03-26 01:14:00,
2013-03-25 18:19:00,74.3,25.2,29.88,WSW,248,4.7,4.7,16,0.00,,---,0.00,VWS V14.01,2013-03-26 01:19:00,
2013-03-25 18:24:00,73.8,24.8,29.88,SW,225,0.0,2.2,16,0.00,,---,0.00,VWS V14.01,2013-03-26 01:24:00,
2013-03-25 18:29:00,73.2,24.4,29.88,WSW,248,0.0,0.0,16,0.00,,---,0.00,VWS V14.01,2013-03-26 01:29:00,
2013-03-25 18:34:00,72.7,23.9,29.88,West,270,0.0,0.0,16,0.00,,---,0.00,VWS V14.01,2013-03-26 01:34:00,
2013-03-25 18:39:00,72.1,23.5,29.88,WSW,248,0.0,0.0,16,0.00,,---,0.00,VWS V14.01,2013-03-26 01:39:00,
2013-03-25 18:44:00,71.6,23.1,29.88,WSW,248,0.0,0.0,16,0.00,,---,0.00,VWS V14.01,2013-03-26 01:44:00,
2013-03-25 18:49:00,71.2,24.2,29.88,SW,225,0.0,0.0,17,0.00,,---,0.00,VWS V14.01,2013-03-26 01:49:00,
2013-03-25 18:55:00,70.7,23.8,29.88,SW,225,0.0,0.0,17,0.00,,---,0.00,VWS V14.01,2013-03-26 01:55:00,
2013-03-25 19:00:00,70.3,23.5,29.88,West,270,0.0,0.0,17,0.00,,---,0.00,VWS V14.01,2013-03-26 02:00:00,
2013-03-25 19:05:00,69.8,23.1,29.88,West,270,0.0,0.0,17,0.00,,---,0.00,VWS V14.01,2013-03-26 02:05:00,
2013-03-25 19:10:00,69.1,22.5,29.88,NW,315,0.0,0.0,17,0.00,,---,0.00,VWS V14.01,2013-03-26 02:10:00,
2013-03-25 19:15:00,68.5,22.0,29.88,West,270,0.0,0.0,17,0.00,,---,0.00,VWS V14.01,2013-03-26 02:15:00,
2013-03-25 19:20:00,67.8,21.5,29.88,WNW,292,0.0,0.0,17,0.00,,---,0.00,VWS V14.01,2013-03-26 02:20:00,
2013-03-25 19:25:00,67.3,21.0,29.88,NNW,338,0.0,0.0,17,0.00,,---,0.00,VWS V14.01,2013-03-26 02:25:00,
2013-03-25 19:30:00,67.3,21.0,29.88,NNE,22,0.0,0.0,17,0.00,,---,0.00,VWS V14.01,2013-03-26 02:30:00,
2013-03-25 19:35:00,66.9,20.7,29.91,NNE,22,0.0,0.0,17,0.00,,---,0.00,VWS V14.01,2013-03-26 02:35:00,
2013-03-25 19:40:00,66.6,20.4,29.91,NNE,22,0.0,0.0,17,0.00,,---,0.00,VWS V14.01,2013-03-26 02:40:00,
2013-03-25 19:45:00,66.4,20.3,29.91,NNE,22,0.0,0.0,17,0.00,,---,0.00,VWS V14.01,2013-03-26 02:45:00,
2013-03-25 19:50:00,67.1,20.9,29.91,NNE,22,0.0,0.0,17,0.00,,---,0.00,VWS V14.01,2013-03-26 02:50:00,
2013-03-25 19:56:00,67.3,21.0,29.91,NW,315,0.0,0.0,17,0.00,,---,0.00,VWS V14.01,2013-03-26 02:56:00,
2013-03-25 20:01:00,66.9,24.6,29.91,North,0,0.0,0.0,20,0.00,,---,0.00,VWS V14.01,2013-03-26 03:01:00,
2013-03-25 20:06:00,66.4,24.1,29.91,NW,315,0.0,0.0,20,0.00,,---,0.00,VWS V14.01,2013-03-26 03:06:00,
2013-03-25 20:11:00,66.2,20.1,29.91,NNW,338,0.0,0.0,17,0.00,,---,0.00,VWS V14.01,2013-03-26 03:11:00,
2013-03-25 20:17:00,66.0,23.8,29.91,NNW,338,0.0,0.0,20,0.00,,---,0.00,VWS V14.01,2013-03-26 03:17:00,
2013-03-25 20:22:00,65.7,23.5,29.91,NNE,22,0.0,0.0,20,0.00,,---,0.00,VWS V14.01,2013-03-26 03:22:00,
2013-03-25 20:27:00,65.7,23.5,29.91,NNE,22,0.0,0.0,20,0.00,,---,0.00,VWS V14.01,2013-03-26 03:27:00,
2013-03-25 20:32:00,65.5,23.4,29.91,NE,45,0.0,0.0,20,0.00,,---,0.00,VWS V14.01,2013-03-26 03:32:00,
2013-03-25 20:37:00,65.3,23.2,29.91,NNE,22,0.0,0.0,20,0.00,,---,0.00,VWS V14.01,2013-03-26 03:37:00,
2013-03-25 20:42:00,65.5,23.4,29.91,NNW,338,0.0,0.0,20,0.00,,---,0.00,VWS V14.01,2013-03-26 03:42:00,
2013-03-25 20:47:00,65.3,23.2,29.91,North,0,0.0,0.0,20,0.00,,---,0.00,VWS V14.01,2013-03-26 03:47:00,
2013-03-25 20:52:00,65.1,23.1,29.91,NW,315,0.0,0.0,20,0.00,,---,0.00,VWS V14.01,2013-03-26 03:52:00,
2013-03-25 20:57:00,64.9,22.9,29.91,NNE,22,0.0,0.0,20,0.00,,---,0.00,VWS V14.01,2013-03-26 03:57:00,
2013-03-25 21:00:00,64.8,22.8,29.91,NNE,22,0.0,0.0,20,0.00,,---,0.00,VWS V14.01,2013-03-26 04:00:00,
2013-03-25 21:01:00,64.8,22.8,29.91,NNE,22,0.0,0.0,20,0.00,,---,0.00,VWS V14.01,2013-03-26 04:01:00,
2013-03-25 21:06:00,65.1,23.1,29.91,NNE,22,0.0,0.0,20,0.00,,---,0.00,VWS V14.01,2013-03-26 04:06:00,
2013-03-25 21:11:00,65.1,23.1,29.91,NE,45,0.0,0.0,20,0.00,,---,0.00,VWS V14.01,2013-03-26 04:11:00,
2013-03-25 21:16:00,65.1,23.1,29.91,NE,45,0.0,0.0,20,0.00,,---,0.00,VWS V14.01,2013-03-26 04:16:00,
2013-03-25 21:21:00,65.1,23.1,29.94,North,0,0.0,0.0,20,0.00,,---,0.00,VWS V14.01,2013-03-26 04:21:00,
2013-03-25 21:27:00,65.1,23.1,29.94,North,0,0.0,0.0,20,0.00,,---,0.00,VWS V14.01,2013-03-26 04:27:00,
2013-03-25 21:32:00,64.4,22.5,29.94,North,0,0.0,0.0,20,0.00,,---,0.00,VWS V14.01,2013-03-26 04:32:00,
2013-03-25 21:37:00,64.0,23.3,29.94,NW,315,0.0,0.0,21,0.00,,---,0.00,VWS V14.01,2013-03-26 04:37:00,
2013-03-25 21:42:00,63.9,23.2,29.94,NNE,22,0.0,0.0,21,0.00,,---,0.00,VWS V14.01,2013-03-26 04:42:00,
2013-03-25 21:47:00,63.7,23.0,29.94,North,0,0.0,0.0,21,0.00,,---,0.00,VWS V14.01,2013-03-26 04:47:00,
2013-03-25 21:52:00,63.5,22.9,29.94,NW,315,0.0,0.0,21,0.00,,---,0.00,VWS V14.01,2013-03-26 04:52:00,
2013-03-25 21:57:00,63.5,22.9,29.94,North,0,0.0,0.0,21,0.00,,---,0.00,VWS V14.01,2013-03-26 04:57:00,
2013-03-25 22:02:00,63.5,22.9,29.94,North,0,0.0,0.0,21,0.00,,---,0.00,VWS V14.01,2013-03-26 05:02:00,
2013-03-25 22:07:00,63.1,22.6,29.94,NNW,338,0.0,0.0,21,0.00,,---,0.00,VWS V14.01,2013-03-26 05:07:00,
2013-03-25 22:12:00,63.1,22.6,29.94,North,0,0.0,0.0,21,0.00,,---,0.00,VWS V14.01,2013-03-26 05:12:00,
2013-03-25 22:17:00,63.0,22.5,29.94,North,0,0.0,0.0,21,0.00,,---,0.00,VWS V14.01,2013-03-26 05:17:00,
2013-03-25 22:22:00,62.6,22.1,29.94,NNW,338,0.0,0.0,21,0.00,,---,0.00,VWS V14.01,2013-03-26 05:22:00,
2013-03-25 22:27:00,62.6,22.1,29.94,NNW,338,0.0,0.0,21,0.00,,---,0.00,VWS V14.01,2013-03-26 05:27:00,
2013-03-25 22:33:00,62.6,22.1,29.94,NNW,338,0.0,0.0,21,0.00,,---,0.00,VWS V14.01,2013-03-26 05:33:00,
2013-03-25 22:38:00,62.6,22.1,29.94,NNW,338,0.0,0.0,21,0.00,,---,0.00,VWS V14.01,2013-03-26 05:38:00,
2013-03-25 22:43:00,62.4,22.0,29.94,NW,315,0.0,0.0,21,0.00,,---,0.00,VWS V14.01,2013-03-26 05:43:00,
2013-03-25 22:48:00,62.4,22.0,29.94,North,0,0.0,0.0,21,0.00,,---,0.00,VWS V14.01,2013-03-26 05:48:00,
2013-03-25 22:53:00,62.4,22.0,29.94,NNW,338,0.0,0.0,21,0.00,,---,0.00,VWS V14.01,2013-03-26 05:53:00,
2013-03-25 22:58:00,62.4,22.0,29.94,NW,315,0.0,0.0,21,0.00,,---,0.00,VWS V14.01,2013-03-26 05:58:00,
2013-03-25 23:03:00,62.2,21.9,29.94,WNW,292,0.0,0.0,21,0.00,,---,0.00,VWS V14.01,2013-03-26 06:03:00,
2013-03-25 23:08:00,62.2,21.9,29.94,West,270,0.0,0.0,21,0.00,,---,0.00,VWS V14.01,2013-03-26 06:08:00,
2013-03-25 23:13:00,62.2,21.9,29.94,NNW,338,0.0,0.0,21,0.00,,---,0.00,VWS V14.01,2013-03-26 06:13:00,
2013-03-25 23:18:00,62.2,21.9,29.94,NE,45,0.0,0.0,21,0.00,,---,0.00,VWS V14.01,2013-03-26 06:18:00,
2013-03-25 23:23:00,62.2,21.9,29.94,North,0,0.0,0.0,21,0.00,,---,0.00,VWS V14.01,2013-03-26 06:23:00,
2013-03-25 23:28:00,62.2,21.9,29.94,NNE,22,0.0,0.0,21,0.00,,---,0.00,VWS V14.01,2013-03-26 06:28:00,
2013-03-25 23:33:00,62.4,22.0,29.94,ENE,68,0.0,0.0,21,0.00,,---,0.00,VWS V14.01,2013-03-26 06:33:00,
2013-03-25 23:38:00,62.4,22.0,29.94,North,0,0.0,0.0,21,0.00,,---,0.00,VWS V14.01,2013-03-26 06:38:00,
2013-03-25 23:43:00,62.2,21.9,29.94,NNE,22,0.0,0.0,21,0.00,,---,0.00,VWS V14.01,2013-03-26 06:43:00,
2013-03-25 23:48:00,62.1,21.7,29.91,NNE,22,0.0,0.0,21,0.00,,---,0.00,VWS V14.01,2013-03-26 06:48:00,
2013-03-25 23:53:00,61.9,21.5,29.91,NNW,338,0.0,0.0,21,0.00,,---,0.00,VWS V14.01,2013-03-26 06:53:00,
2013-03-25 23:58:00,61.9,21.5,29.91,NNW,338,0.0,0.0,21,0.00,,---,0.00,VWS V14.01,2013-03-26 06:58:00,